Location: Elk Horn Observatory
(36.6768°N, 80.8309°W)
Time: 05:11:46
(UTC-05:00)

Envisat - Pass Details

Date: 27 January 2019
Orbit: 764 x 766 km, 98.2° (Epoch: 21 February)

Event Time Altitude Azimuth Distance (km) Brightness Sun altitude
Rises 18:39:51 0° 150° (SSE) 3,217 6.1 -11.6°
Reaches altitude 10° 18:42:13 10° 145° (SE) 2,295 5.3 -12.0°
Maximum altitude 18:47:02 46° 72° (ENE) 1,017 3.2 -12.9°
Drops below altitude 10° 18:51:53 10° 0° (N) 2,308 5.3 -13.9°
Sets 18:54:16 0° 355° (N) 3,238 6.2 -14.4°
